Simultaneous Nadir Overpasses (SNOs) Predictions

Prediction of SNOs between TERRA and METOP-C Satellite Orbit:

Table of predicted SNOs for the next 14.0 days since TLE Epoch: 8/15/2020
Index Date (TERRA) Time (TERRA) Lat,Lon (TERRA) SZA (TERRA ) Date (METOP-C) Time (METOP-C) Lat,Lon (METOP-C) SZA (METOP-C ) Distance(km) Time Diff (sec)
1 08/15/2020 14:05:42 81.31, 15.99 70.28 08/15/2020 14:05:40 81.31, 15.90 70.28 1.59 2
2 08/15/2020 14:55:08 -81.32,-176.11 109.67 08/15/2020 14:56:18 -81.32,-175.99 109.62 1.97 70
3 08/18/2020 08:50:32 -81.30, -85.29 108.83 08/18/2020 08:49:20 -81.31, -85.21 108.85 1.44 72
4 08/18/2020 09:39:58 81.31, 82.48 71.20 08/18/2020 09:40:01 81.31, 82.30 71.19 2.94 3
5 08/18/2020 10:29:00 -81.70,-100.03 107.40 08/18/2020 10:30:14 -81.32, -99.71 107.52 42.69 74
6 08/21/2020 04:24:49 -81.30, -18.93 107.90 08/21/2020 04:23:41 -81.31, -18.78 107.91 2.89 68
7 08/21/2020 05:14:14 81.33, 149.19 72.19 08/21/2020 05:14:21 81.32, 149.09 72.17 1.92 7
8 08/23/2020 23:59:05 -81.31, 47.64 106.91 08/23/2020 23:58:01 -81.31, 47.66 106.94 0.34 64
9 08/24/2020 00:48:31 81.31,-144.64 73.12 08/24/2020 00:48:41 81.32,-144.52 73.14 2.03 10
10 08/26/2020 19:33:23 -81.31, 114.06 105.92 08/26/2020 19:32:22 -81.31, 114.08 105.95 0.52 61



Historial Predications of SNOs between TERRA and METOP-C
